Temp
12 12 12 11 11 11 10 11 10 10 10 11 11 11 11 10 10 8 7 9 9 8 6 6 6 5 5 5 5 4 3 4 4 4 4 4 4 4 4 4 4 5 5
12 12 12 12 11 10 10 10 10 10 10 10 10 10 10 9 9 8 7 7 8 7 6 6 5 4 4 4 4 4 3 3 3 3 3 3 3 3 3 3 3 3 3
12 12 12 12 11 11 10 10 10 10 10 9 9 9 8 8 8 8 6 6 6 6 6 5 4 4 4 3 3 3 3 2 2 2 2 2 2 3 2 2 3 3 3
12 12 11 11 11 10 10 10 10 10 9 8 7 7 7 8 8 7 6 6 5 5 5 4 4 4 3 3 3 3 3 3 2 2 2 2 2 2 2 2 2 2 2
12 12 11 11 10 10 10 10 10 9 8 7 7 7 7 6 6 5 4 4 4 4 4 3 4 4 3 3 3 2 2 2 2 2 2 2 1 1 1 2 1 2 2
12 11 11 10 10 10 10 10 9 9 8 7 6 6 5 5 5 4 4 4 4 3 3 3 3 3 2 2 2 2 2 1 2 2 2 2 2 1 1 1 1 1 1
11 11 10 10 10 10 9 9 8 8 6 6 6 7 6 4 4 4 4 4 4 3 2 2 2 2 2 1 1 1 1 1 0 0 1 1 0 0 1 0 0 1 1
11 11 10 10 10 9 9 9 8 6 6 5 6 6 8 7 5 4 4 4 3 3 3 2 1 1 1 1 1 -0 -0 0 0 0 0 0 0 -0 0 0 0 0 -1
10 10 10 10 10 9 8 8 7 6 6 5 4 5 7 8 6 6 4 3 3 2 2 2 1 0 -0 0 -0 -0 -1 -1 -1 -1 -1 -2 -1 -1 -1 -0 0 -0 -0
10 10 9 9 9 8 8 8 7 6 5 5 5 4 3 4 5 5 5 4 3 2 2 1 1 1 -0 -1 -1 -2 -2 -2 -2 -2 -2 -2 -2 -2 -1 -1 -1 -1 -1
10 9 9 8 8 8 7 7 6 5 4 4 4 4 4 3 3 3 3 4 3 3 2 2 1 0 -0 -1 -2 -2 -3 -3 -3 -3 -3 -3 -3 -3 -3 -2 -2 -2 -1
10 9 8 8 8 7 7 5 5 6 5 4 3 3 3 3 3 3 3 3 3 2 2 1 0 0 -0 -2 -2 -3 -3 -3 -3 -4 -4 -4 -4 -4 -4 -4 -3 -3 -2
9 9 8 8 7 7 6 5 5 3 4 2 2 2 2 2 1 1 1 1 1 2 1 1 -0 -1 -1 -2 -3 -3 -4 -4 -4 -4 -4 -4 -4 -4 -4 -5 -5 -4 -4
8 7 7 6 6 5 5 5 4 3 2 2 1 1 1 1 1 1 1 0 0 1 1 1 1 -0 -2 -2 -3 -4 -4 -5 -5 -4 -4 -4 -5 -4 -4 -5 -5 -5 -6
7 7 6 7 6 5 5 5 3 2 2 1 1 0 0 1 0 -0 -0 -0 -0 -0 1 1 1 -1 -2 -3 -3 -4 -5 -5 -5 -5 -5 -5 -5 -5 -5 -5 -5 -6 -7
7 7 7 5 4 5 5 4 2 1 1 1 1 0 -0 -0 -0 -1 -1 -1 -1 -1 -1 -0 -0 -1 -2 -3 -3 -5 -6 -6 -6 -6 -5 -5 -5 -5 -5 -6 -6 -8 -8
8 6 5 5 5 4 4 3 2 1 1 1 0 -0 -0 -1 -1 -1 -1 -1 -1 -1 -1 -1 -1 -1 -3 -4 -4 -5 -5 -6 -6 -7 -7 -5 -6 -6 -6 -6 -6 -7 -7
5 6 6 5 4 3 3 2 1 1 1 0 0 -0 -1 -1 -1 -1 -1 -2 -2 -2 -2 -2 -3 -2 -3 -4 -5 -5 -6 -6 -7 -7 -7 -6 -6 -6 -6 -6 -7 -7 -7
5 4 4 4 4 3 2 1 1 1 0 -0 -0 -0 -1 -1 -1 -1 -2 -2 -2 -2 -2 -3 -4 -3 -4 -5 -5 -5 -6 -6 -7 -7 -7 -7 -8 -7 -7 -7 -8 -8 -8
4 3 3 3 3 2 1 0 0 -0 -0 -0 -1 -1 -1 -1 -2 -2 -2 -2 -2 -3 -3 -4 -5 -5 -5 -5 -5 -5 -6 -6 -6 -6 -7 -7 -8 -8 -8 -8 -9 -9 -8
3 4 2 3 2 1 0 -0 -0 -1 -1 -1 -1 -2 -2 -2 -3 -3 -3 -3 -3 -4 -5 -6 -6 -5 -5 -4 -5 -5 -6 -7 -7 -7 -7 -7 -7 -7 -7 -8 -8 -8 -9
3 2 2 1 0 0 -0 0 0 -1 -1 -2 -1 -2 -2 -2 -3 -4 -4 -4 -4 -6 -6 -5 -5 -6 -5 -5 -5 -6 -6 -7 -7 -7 -7 -8 -8 -8 -7 -7 -8 -9 -9
1 1 0 1 0 -1 -0 -0 -0 -1 -2 -2 -2 -2 -2 -2 -3 -4 -5 -5 -6 -6 -6 -6 -6 -6 -6 -7 -7 -7 -7 -7 -7 -7 -8 -8 -8 -8 -8 -8 -8 -9 -8
1 -0 -0 -1 -1 -1 -0 -1 -1 -2 -3 -3 -3 -3 -3 -3 -3 -4 -4 -5 -5 -6 -6 -7 -7 -6 -7 -7 -8 -8 -8 -9 -9 -9 -8 -8 -8 -8 -8 -8 -9 -9 -8
-0 -0 -1 -1 -2 -2 -2 -2 -2 -3 -4 -4 -3 -3 -3 -4 -4 -4 -5 -6 -6 -6 -7 -7 -7 -7 -8 -8 -9 -9 -9 -10 -9 -8 -8 -8 -9 -9 -9 -8 -8 -8 -8
-1 -1 -2 -2 -2 -2 -3 -3 -3 -4 -4 -5 -5 -5 -5 -5 -5 -5 -6 -6 -6 -7 -7 -7 -8 -8 -8 -9 -9 -9 -10 -10 -10 -9 -8 -9 -9 -9 -9 -9 -8 -9 -8
Height
1575 1578 1580 1581 1582 1585 1586 1587 1588 1589 1588 1589 1587 1585 1585 1584 1583 1583 1581 1578 1577 1576 1576 1576 1574 1573 1572 1571 1571 1570 1568 1568 1567 1565 1563 1561 1559 1557 1554 1552 1551 1549 1548
1576 1577 1579 1581 1582 1584 1585 1586 1587 1588 1588 1587 1586 1585 1583 1584 1581 1581 1581 1577 1575 1574 1574 1573 1573 1572 1571 1570 1568 1568 1566 1565 1564 1563 1562 1560 1558 1556 1554 1552 1550 1548 1546
1575 1576 1579 1580 1582 1583 1583 1585 1586 1586 1587 1587 1585 1584 1581 1581 1580 1579 1579 1578 1577 1573 1573 1571 1571 1570 1569 1568 1567 1566 1565 1563 1561 1561 1560 1558 1556 1555 1552 1551 1549 1547 1545
1575 1576 1578 1579 1580 1582 1583 1584 1585 1586 1585 1585 1584 1583 1581 1580 1579 1578 1576 1576 1575 1575 1571 1569 1568 1567 1566 1565 1565 1564 1564 1563 1559 1558 1557 1555 1554 1552 1550 1549 1547 1546 1545
1573 1575 1576 1577 1578 1580 1582 1582 1583 1586 1584 1583 1583 1581 1579 1578 1577 1576 1574 1573 1571 1570 1571 1567 1565 1564 1562 1561 1560 1559 1560 1560 1559 1556 1554 1552 1551 1549 1548 1546 1545 1543 1542
1571 1573 1573 1575 1577 1578 1580 1580 1582 1583 1582 1582 1581 1579 1577 1576 1575 1574 1573 1571 1570 1568 1567 1566 1564 1564 1559 1557 1556 1555 1554 1554 1554 1553 1551 1549 1547 1546 1544 1542 1542 1541 1539
1569 1571 1571 1573 1575 1577 1578 1578 1580 1580 1580 1579 1578 1578 1575 1572 1571 1571 1571 1570 1568 1566 1564 1563 1561 1560 1559 1554 1552 1550 1549 1548 1547 1547 1546 1544 1543 1542 1541 1538 1537 1537 1537
1566 1567 1569 1571 1573 1573 1576 1576 1578 1578 1578 1576 1577 1575 1573 1572 1569 1568 1568 1566 1565 1563 1562 1560 1557 1555 1553 1551 1549 1545 1543 1542 1541 1541 1540 1539 1537 1536 1536 1536 1533 1532 1530
1564 1565 1567 1568 1569 1570 1572 1574 1575 1575 1577 1574 1572 1573 1570 1568 1567 1565 1564 1563 1561 1559 1558 1556 1554 1551 1548 1546 1543 1542 1536 1536 1536 1535 1534 1533 1532 1531 1531 1531 1530 1528 1526
1561 1562 1564 1565 1566 1568 1569 1570 1571 1571 1571 1573 1570 1568 1567 1567 1565 1562 1561 1559 1557 1556 1554 1552 1550 1548 1544 1542 1539 1535 1532 1531 1530 1530 1528 1528 1527 1526 1526 1525 1524 1523 1520
1557 1559 1560 1561 1563 1565 1565 1566 1566 1566 1567 1567 1567 1566 1565 1564 1562 1561 1557 1556 1554 1552 1550 1548 1546 1543 1541 1537 1535 1532 1527 1526 1525 1524 1523 1522 1520 1520 1519 1519 1518 1517 1515
1551 1554 1556 1557 1558 1560 1561 1564 1565 1562 1561 1561 1561 1561 1561 1560 1558 1556 1554 1551 1549 1547 1545 1543 1540 1539 1536 1533 1529 1526 1522 1521 1519 1518 1516 1515 1514 1513 1511 1511 1511 1509 1508
1546 1548 1550 1552 1553 1555 1559 1559 1558 1560 1559 1558 1557 1556 1555 1554 1553 1552 1550 1547 1544 1542 1539 1537 1535 1533 1531 1529 1526 1520 1517 1516 1513 1511 1509 1507 1505 1503 1502 1501 1500 1500 1499
1543 1544 1545 1547 1548 1552 1553 1553 1553 1555 1554 1553 1552 1550 1551 1550 1549 1548 1546 1543 1539 1535 1533 1531 1529 1527 1525 1523 1521 1516 1515 1511 1506 1504 1502 1499 1496 1494 1492 1490 1489 1488 1487
1539 1538 1540 1541 1544 1548 1547 1548 1549 1550 1549 1548 1547 1546 1545 1545 1544 1542 1540 1539 1535 1530 1527 1525 1523 1521 1518 1517 1515 1512 1510 1507 1500 1497 1494 1491 1489 1487 1484 1482 1480 1478 1477
1531 1534 1537 1540 1541 1542 1544 1544 1545 1545 1544 1543 1542 1541 1541 1540 1539 1537 1535 1533 1530 1527 1520 1520 1517 1515 1513 1511 1510 1506 1503 1497 1493 1489 1486 1484 1482 1479 1476 1474 1471 1469 1469
1527 1532 1535 1536 1538 1539 1541 1541 1541 1541 1539 1538 1537 1536 1535 1534 1533 1532 1530 1527 1524 1522 1517 1512 1511 1509 1506 1504 1503 1500 1497 1493 1489 1485 1479 1477 1474 1471 1468 1466 1464 1461 1460
1524 1530 1531 1531 1534 1536 1537 1537 1537 1536 1534 1533 1532 1530 1529 1528 1527 1525 1523 1520 1518 1515 1512 1506 1504 1502 1499 1497 1495 1493 1491 1487 1483 1479 1473 1470 1467 1463 1461 1459 1456 1454 1452
1525 1527 1526 1529 1529 1532 1532 1532 1531 1530 1528 1527 1525 1524 1522 1521 1519 1518 1515 1513 1510 1507 1504 1500 1496 1495 1493 1491 1489 1487 1485 1482 1478 1473 1468 1464 1460 1457 1455 1452 1449 1446 1445
1518 1521 1524 1527 1527 1527 1527 1526 1526 1524 1522 1520 1519 1517 1515 1514 1511 1510 1508 1505 1502 1499 1496 1492 1489 1487 1486 1484 1482 1480 1478 1476 1473 1469 1465 1461 1456 1453 1449 1446 1443 1440 1438
1519 1519 1522 1522 1522 1522 1522 1522 1520 1518 1516 1514 1512 1510 1508 1505 1502 1500 1499 1496 1494 1491 1487 1484 1482 1481 1479 1477 1476 1474 1472 1470 1467 1464 1460 1458 1455 1451 1448 1444 1440 1436 1434
1515 1518 1519 1518 1517 1517 1516 1515 1513 1511 1509 1507 1505 1503 1500 1497 1493 1489 1487 1485 1483 1481 1479 1477 1475 1474 1472 1471 1470 1469 1467 1465 1461 1460 1456 1453 1450 1445 1442 1439 1436 1432 1430
1514 1514 1513 1513 1512 1513 1510 1509 1507 1505 1502 1500 1497 1495 1492 1489 1486 1483 1480 1476 1473 1470 1469 1469 1469 1468 1467 1466 1465 1463 1462 1460 1456 1454 1451 1446 1445 1440 1437 1434 1430 1426 1424
1508 1508 1508 1508 1507 1507 1505 1504 1502 1498 1495 1492 1490 1486 1483 1480 1477 1475 1472 1469 1467 1465 1462 1461 1461 1462 1461 1460 1459 1458 1456 1454 1450 1448 1447 1441 1439 1435 1432 1428 1423 1421 1419
1504 1504 1504 1503 1502 1501 1499 1497 1495 1491 1487 1483 1481 1477 1474 1471 1468 1465 1461 1458 1457 1455 1455 1454 1454 1453 1452 1451 1451 1451 1450 1448 1445 1443 1442 1438 1435 1430 1427 1422 1419 1416 1415
1499 1499 1499 1498 1495 1493 1491 1489 1486 1481 1476 1472 1469 1466 1463 1459 1456 1455 1452 1449 1447 1446 1448 1447 1444 1443 1443 1442 1442 1442 1443 1442 1440 1438 1437 1434 1431 1428 1422 1418 1417 1415 1412
Wind_Speed
17 17 16 14 12 10 8 5 3 1 3 5 8 9 11 11 10 7 6 9 9 5 3 6 10 12 14 14 12 11 9 13 9 17 13 14 11 12 15 13 13 13 13
16 14 13 12 11 9 8 4 2 1 4 6 9 9 8 9 9 7 5 9 8 5 4 6 7 7 9 14 14 14 14 15 17 13 10 14 12 13 19 16 14 14 15
14 13 11 10 11 9 6 3 1 3 4 6 7 9 8 9 8 7 6 4 7 8 6 7 9 11 10 6 11 10 13 15 17 15 16 16 13 17 15 14 14 16 17
12 12 12 11 10 8 6 3 0 3 5 4 5 6 9 8 7 7 5 2 4 5 10 9 10 12 14 16 13 12 12 14 15 20 20 15 12 13 15 14 17 16 19
11 11 11 11 11 9 7 4 1 2 3 2 4 8 10 4 5 4 2 4 7 8 6 11 11 13 16 18 20 19 14 14 17 16 19 20 17 17 17 17 15 18 25
13 13 12 13 12 10 8 5 1 2 3 5 6 7 7 6 6 5 5 7 7 8 5 7 10 11 19 17 19 20 19 15 15 17 15 17 20 20 20 20 17 20 21
16 15 15 15 14 11 9 5 3 4 3 9 6 9 11 8 8 7 9 9 9 10 8 9 10 11 11 17 18 19 21 20 17 19 23 21 20 19 18 20 20 26 22
18 16 17 17 16 13 10 7 4 3 4 7 5 9 8 9 7 10 12 12 12 10 11 12 13 12 14 15 16 22 21 22 24 24 23 24 25 22 19 20 22 23 19
18 20 20 19 18 13 10 9 6 4 5 6 6 5 7 9 15 8 10 10 12 12 13 14 15 15 16 16 16 15 21 21 22 23 22 19 20 19 19 21 23 26 25
22 22 22 21 18 14 12 12 8 5 7 7 8 8 8 11 10 12 11 14 14 15 15 16 17 17 17 16 15 19 22 24 22 22 22 22 20 19 19 21 23 23 25
22 23 23 21 18 15 16 14 8 9 8 8 9 9 11 11 12 14 18 14 16 17 17 18 17 18 17 16 13 16 23 20 22 24 24 24 24 21 20 23 25 26 25
25 25 24 23 22 20 18 10 15 20 15 10 9 10 10 12 13 14 17 18 20 20 19 17 17 17 18 16 16 20 26 25 25 25 26 26 27 29 27 26 27 28 28
26 27 27 27 24 22 10 13 21 12 13 10 10 9 10 11 11 13 15 19 21 20 19 19 18 18 17 17 16 21 22 26 30 29 30 32 33 33 34 33 30 31 31
22 23 27 25 25 17 14 17 13 12 11 13 11 10 10 11 12 13 15 19 22 21 19 20 19 16 18 17 17 23 22 24 33 33 35 35 33 32 32 33 33 32 28
19 27 26 28 22 14 19 14 11 11 13 12 12 11 12 13 14 14 16 17 19 24 24 20 20 17 18 17 18 20 21 23 34 33 31 30 30 30 30 31 31 31 28
26 24 24 19 14 14 17 11 12 12 13 13 12 13 14 15 15 16 18 18 19 22 28 22 22 20 20 21 21 23 23 28 27 29 29 27 27 27 27 29 30 28 25
24 20 16 11 21 16 12 13 13 14 14 15 15 16 17 17 18 19 19 20 21 21 27 28 23 23 21 21 21 22 24 24 23 25 30 28 26 27 28 29 31 32 31
16 14 15 15 12 10 12 13 16 16 16 17 18 19 20 19 21 21 21 22 23 24 27 30 28 25 23 20 21 22 24 22 22 22 29 26 26 29 28 27 28 28 27
17 16 10 12 10 11 12 15 16 17 18 19 20 21 22 22 23 23 24 24 25 26 27 27 29 25 24 20 21 21 22 23 21 22 25 25 27 28 26 26 27 28 28
20 11 9 11 13 13 15 16 15 16 18 19 20 21 22 23 25 25 25 25 26 28 28 28 27 26 22 21 21 23 23 20 21 20 21 23 23 23 25 26 28 25 25
10 14 8 13 15 18 15 13 14 16 17 19 20 22 23 25 28 30 29 27 27 28 28 25 26 22 23 22 22 22 23 23 21 19 18 16 18 21 21 22 23 22 20
11 9 13 14 15 12 17 19 20 21 19 21 23 24 25 27 29 30 30 32 32 29 30 28 24 24 24 24 22 21 22 22 22 16 16 21 20 21 20 19 20 24 20
10 14 13 12 12 13 19 19 21 23 23 23 25 26 27 27 28 28 27 30 31 28 28 28 27 25 24 22 21 22 21 21 22 20 21 23 19 21 18 19 21 23 16
12 9 9 10 12 14 19 20 22 25 25 25 25 27 28 29 28 30 30 29 27 25 25 24 24 24 23 20 19 20 20 21 21 19 17 24 20 20 19 21 21 17 14
7 9 10 11 13 15 20 23 24 27 27 29 29 30 31 32 31 32 33 30 28 26 24 28 28 28 29 29 28 22 20 18 20 19 17 21 16 20 20 20 12 13 19
8 8 10 12 18 23 23 27 29 31 36 35 34 34 34 37 35 33 33 31 32 27 22 23 20 21 22 22 22 22 18 19 19 20 14 16 18 20 21 15 10 17 15
Wind_Direction
168 176 178 173 173 169 164 177 200 259 322 329 340 339 334 330 333 349 348 343 340 331 257 263 287 300 309 318 330 335 338 333 339 330 340 341 333 341 342 338 338 336 330
184 183 185 185 177 165 177 188 180 331 336 337 333 330 330 334 336 356 15 336 342 334 291 254 246 269 290 307 316 323 324 322 326 325 325 332 306 320 327 321 325 332 331
192 188 181 177 185 193 196 199 247 332 345 338 331 332 342 337 336 337 358 24 355 344 308 275 256 258 265 284 309 318 309 312 317 314 315 314 299 308 313 301 311 324 328
198 183 184 190 192 192 188 186 220 325 335 344 346 338 330 325 320 328 345 35 357 348 333 301 277 273 274 277 280 290 291 296 298 305 310 313 290 297 303 305 301 301 320
186 185 193 200 192 187 190 194 227 354 354 351 325 327 323 296 302 312 305 332 330 331 315 305 304 292 283 275 274 273 283 279 286 296 290 299 291 292 295 291 299 297 311
193 195 204 199 191 191 201 203 194 334 333 324 318 303 305 276 274 275 275 306 301 318 311 307 306 306 303 293 281 276 274 280 276 279 291 283 290 285 286 281 288 304 305
197 205 202 198 198 199 209 216 243 319 322 333 332 320 298 273 267 266 283 294 293 302 285 301 315 303 300 302 309 285 275 273 277 275 264 277 291 292 298 284 290 298 282
205 206 209 203 202 209 222 223 249 292 292 315 320 322 316 304 294 290 278 285 288 285 290 296 301 302 302 299 290 283 281 273 272 273 276 274 276 285 285 282 283 282 279
211 210 207 208 213 216 218 230 266 296 291 281 294 308 315 299 303 290 284 285 284 285 284 293 296 299 302 298 292 294 286 281 279 278 277 284 287 289 286 279 280 279 280
212 212 212 216 218 220 232 240 264 292 300 280 286 289 273 280 295 296 289 294 290 292 289 288 291 294 300 297 288 285 276 281 282 282 281 278 282 287 284 281 280 283 283
218 218 220 221 224 229 230 238 259 318 285 276 280 283 283 280 282 284 295 296 293 293 288 286 287 290 296 292 287 277 278 282 282 282 281 280 277 280 283 282 281 278 282
224 225 223 225 229 234 236 257 300 303 291 272 275 273 275 277 281 283 287 292 295 295 288 284 285 286 287 286 278 271 280 282 285 286 286 283 279 276 276 276 276 276 276
225 227 224 226 230 235 238 313 294 270 275 270 265 272 272 272 274 278 285 293 295 294 290 278 280 279 281 280 276 273 285 288 286 288 290 289 288 285 281 277 275 273 273
225 221 220 220 226 220 303 298 268 256 253 272 274 270 270 268 268 276 284 291 292 292 291 285 282 274 280 277 267 272 291 289 291 293 294 293 291 289 286 283 282 279 276
211 222 216 225 222 217 310 273 243 243 259 268 276 265 260 265 267 275 281 282 282 287 288 290 285 279 276 274 275 273 281 286 285 294 292 291 290 290 289 288 284 280 278
220 222 223 216 210 270 276 248 242 248 258 272 269 261 263 267 270 276 282 282 278 278 284 288 285 281 277 271 275 277 285 289 300 298 296 294 295 295 291 286 283 282 280
224 224 207 235 270 257 242 254 250 259 263 270 264 266 267 267 271 275 280 281 278 276 279 285 282 282 273 269 274 278 286 288 292 295 293 300 300 294 290 288 285 284 285
208 218 255 249 238 233 264 259 266 266 269 269 270 269 269 271 269 275 280 279 277 278 278 280 279 278 275 267 272 277 287 285 288 289 288 301 297 294 297 294 291 288 285
218 237 233 226 233 268 258 275 270 269 268 271 271 269 268 266 269 273 275 276 278 279 277 275 274 274 275 265 273 282 285 285 287 290 301 304 304 301 302 294 292 289 286
221 215 258 243 256 257 275 274 270 272 274 274 271 269 266 264 267 271 273 276 279 278 275 269 268 269 270 270 273 282 287 285 288 288 291 296 300 310 310 309 306 300 289
218 286 249 247 259 279 270 266 272 275 278 278 275 273 270 268 263 266 270 274 277 276 271 267 265 266 268 272 273 281 283 287 286 291 292 289 292 296 295 295 296 300 296
263 230 238 270 269 264 266 284 286 287 282 280 280 279 276 275 277 280 277 278 281 271 264 262 263 265 270 275 277 278 281 284 288 290 289 293 296 298 297 294 282 280 281
238 269 266 267 269 269 280 290 291 291 289 283 282 282 280 278 275 274 280 285 286 280 264 257 263 267 273 273 274 275 276 278 282 286 289 294 300 299 298 296 291 286 286
267 254 266 268 272 277 289 294 297 296 291 285 285 285 283 282 279 273 273 274 274 269 266 260 256 264 268 270 269 272 273 275 278 286 289 292 300 298 301 298 296 287 256
258 270 275 276 279 284 290 297 296 293 288 287 287 286 285 281 283 278 271 269 270 263 260 256 256 260 263 266 266 266 263 273 280 285 289 289 294 301 306 307 302 280 274
271 273 280 287 290 295 297 294 292 290 289 291 291 288 284 281 278 280 272 268 268 262 259 257 258 272 266 267 270 262 255 261 271 281 287 291 297 306 308 300 290 302 285